Location: Caltech
(34.1382°N, 118.1253°W)
Time: 07:54:54
(UTC-07:00)

Tiros 1 despin weight - All Passes

Search period start: 06 May 2016 00:00
Search period end: 16 May 2016 00:00
Orbit: 596 x 645 km, 48.2° (Epoch: 05 May)

Date Brightness Start Highest point End Pass type
(mag) Time Alt. Az. Time Alt. Az. Time Alt. Az.
06 May - 06:42:26 10° S 06:45:32 18° SE 06:48:37 10° E daylight
06 May - 08:22:18 10° WSW 08:26:46 67° NW 08:31:13 10° NE daylight
06 May - 10:05:49 10° WNW 10:09:00 19° NNW 10:12:10 10° NNE daylight
06 May - 11:49:53 10° NNW 11:52:00 13° N 11:54:05 10° NNE daylight
06 May - 13:31:13 10° NNW 13:34:50 24° NNE 13:38:28 10° ENE daylight
06 May - 15:12:21 10° NW 15:16:46 73° SW 15:21:11 10° SE daylight
07 May - 06:58:24 10° SSW 07:02:38 39° SE 07:06:49 10° ENE daylight
07 May - 08:40:05 10° W 08:44:15 36° NNW 08:48:22 10° NE daylight
07 May - 10:24:21 10° NW 10:26:51 14° N 10:29:19 10° NNE daylight
07 May - 12:07:20 10° NNW 12:09:54 15° N 12:12:29 10° NE daylight
07 May - 13:48:16 10° NW 13:52:26 39° NNE 13:56:36 10° E daylight
07 May - 15:30:00 10° WNW 15:33:57 33° SW 15:37:56 10° SSE daylight
08 May - 05:37:10 10° SSE 05:38:47 12° SE 05:40:25 10° ESE daylight
08 May - 07:15:19 10° SW 07:19:51 85° SE 07:24:21 10° NE daylight
08 May - 08:58:18 10° WNW 09:01:52 23° NNW 09:05:25 10° NNE daylight
08 May - 10:42:40 10° NNW 10:44:46 13° N 10:46:51 10° NNE daylight
08 May - 12:24:27 10° NNW 12:27:44 20° NNE 12:31:00 10° ENE daylight
08 May - 14:05:27 10° NW 14:09:53 76° NE 14:14:18 10° ESE daylight
08 May - 15:48:29 10° W 15:51:02 15° SW 15:53:34 10° SSW daylight
09 May - 05:52:02 10° S 05:55:49 26° SE 05:59:35 10° ENE daylight
09 May - 07:32:50 10° WSW 07:37:14 49° NNW 07:41:36 10° NE daylight
09 May - 09:16:46 10° NW 09:19:39 16° NNW 09:22:30 10° NNE daylight
09 May - 11:00:24 10° NNW 11:02:42 14° N 11:04:59 10° NE daylight
09 May - 12:41:30 10° NW 12:45:25 30° NNE 12:49:19 10° E daylight
09 May - 14:22:52 10° WNW 14:27:09 50° SW 14:31:26 10° SSE daylight
10 May - 06:08:30 10° SW 06:12:58 57° SE 06:17:23 10° ENE daylight
10 May - 07:50:51 10° W 07:54:46 28° NNW 07:58:41 10° NE daylight
10 May - 09:35:16 10° NW 09:37:32 14° N 09:39:47 10° NNE daylight
10 May - 11:17:40 10° NNW 11:20:35 17° NNE 11:23:28 10° NE daylight
10 May - 12:58:36 10° NW 13:02:56 52° NNE 13:07:16 10° ESE daylight
10 May - 14:40:47 10° W 14:44:17 23° SW 14:47:46 10° S daylight
11 May - 04:46:00 10° S 04:49:03 18° SE 04:52:04 10° E visible
11 May - 06:25:43 10° WSW 06:30:16 70° NW 06:34:46 10° NE daylight
11 May - 08:09:12 10° WNW 08:12:29 19° NNW 08:15:44 10° NNE daylight
11 May - 09:53:20 10° NNW 09:55:28 13° N 09:57:36 10° NNE daylight
11 May - 11:34:44 10° NNW 11:38:20 24° NNE 11:41:55 10° ENE daylight
11 May - 13:15:52 10° NW 13:20:17 77° SW 13:24:42 10° SE daylight
12 May - 05:01:53 10° SSW 05:06:07 38° SE 05:10:19 10° ENE visible
12 May - 06:43:29 10° W 06:47:43 37° NNW 06:51:55 10° NE daylight
12 May - 08:27:43 10° NW 08:30:19 15° N 08:32:53 10° NNE daylight
12 May - 10:10:48 10° NNW 10:13:23 15° N 10:15:56 10° NE daylight
12 May - 11:51:48 10° NW 11:55:57 38° NNE 12:00:04 10° E daylight
12 May - 13:33:28 10° WNW 13:37:30 35° SW 13:41:30 10° SSE daylight
13 May - 03:40:50 10° SSE 03:42:17 11° SE 03:43:43 10° ESE visible
13 May - 05:18:44 10° SW 05:23:20 81° SE 05:27:52 10° NE visible
13 May - 07:01:39 10° WNW 07:05:20 23° NNW 07:08:59 10° NNE daylight
13 May - 08:46:03 10° NNW 08:48:13 13° N 08:50:23 10° NNE daylight
13 May - 10:27:57 10° NNW 10:31:12 19° NNE 10:34:26 10° ENE daylight
13 May - 12:08:57 10° NW 12:13:23 73° NE 12:17:47 10° ESE daylight
13 May - 13:51:51 10° W 13:54:33 16° SW 13:57:13 10° SSW daylight
14 May - 03:55:30 10° S 03:59:18 25° SE 04:03:03 10° ENE visible
14 May - 05:36:13 10° WSW 05:40:42 51° NNW 05:45:08 10° NE daylight
14 May - 07:20:07 10° NW 07:23:05 17° NNW 07:26:03 10° NNE daylight
14 May - 09:03:50 10° NNW 09:06:09 14° N 09:08:27 10° NE daylight
14 May - 10:45:00 10° NW 10:48:53 29° NNE 10:52:46 10° E daylight
14 May - 12:26:20 10° WNW 12:30:39 53° SW 12:34:57 10° SE daylight
15 May - 04:11:55 10° SW 04:16:26 54° SE 04:20:53 10° ENE visible
15 May - 05:54:12 10° W 05:58:13 30° NNW 06:02:13 10° NE daylight
15 May - 07:38:35 10° NW 07:40:58 14° N 07:43:20 10° NNE daylight
15 May - 09:21:07 10° NNW 09:24:02 17° NNE 09:26:54 10° NE daylight
15 May - 11:02:04 10° NW 11:06:25 50° NNE 11:10:43 10° ESE daylight
15 May - 12:44:12 10° WNW 12:47:47 24° SW 12:51:20 10° S daylight
